Flag Weather past 2 weeks in Lustenau, Vorarlberg, Austria

Now
45 °F

Quite cool.


Feels Like: 45 °F
Forecast: 44 / 67 °F
Wind: 1 mph from North

Location: Saint Gallen-Altenrhein

Current Time: Oct 31, 2014 at 9:17:57 PM

Latest Report: Oct 31, 2014 at 8:50 PM


Visibility: 5 mi

Pressure: 30.27 "Hg

Humidity: 93%

Dew point: 43 °F

Location of LustenauLocation

Historic Weather in Lustenau — Graph

°F

Lustenau temperature yesterday

Maximum temperature yesterday: 57 °F (at 3:50 PM)
Minimum temperature yesterday: 39 °F (at 1:50 AM)
Average temperature yesterday: 47 °F

Past Weeks' High & Low Weather Summary

 TemperatureHumidityPressure
High70 °F (Oct 20, 1:50 PM)100% (Oct 17, 10:50 PM)30.36 "Hg (Oct 17, 10:50 PM)
Low36 °F (Oct 24, 5:50 AM)49% (Oct 21, 4:50 PM)27.00 "Hg (Oct 17, 10:25 AM)
Average51 °F85%30.16 "Hg
* Reported Oct 16 9:20 PM — Oct 31 8:20 PM, Lustenau, Weather by CustomWeather, © 2014

Note: Actual official high and low records may vary slightly from our data, if they occured in-between our weather recording intervals... More about our weather records

Advertising

Lustenau weather history for previous 24 hours

 ConditionsComfort  
Time TempWeatherWind HumidityBarometerVisibility
8:20 PM
Oct 31
45 °FClear.2 mph100%30.27 "Hg10 mi
7:50 PM45 °FClear.2 mph100%30.27 "Hg10 mi
7:20 PM46 °FClear.2 mph93%30.27 "Hg10 mi
6:50 PM46 °FClear.2 mph93%30.27 "Hg10 mi
6:20 PM46 °FClear.2 mph93%30.27 "Hg10 mi
5:50 PM48 °FClear.2 mph87%30.27 "Hg10 mi
5:20 PM50 °FClear.2 mph88%30.27 "Hg10 mi
4:50 PM52 °FSunny.2 mph82%30.27 "Hg10 mi
4:20 PM54 °FSunny.2 mph82%30.27 "Hg10 mi
3:50 PM54 °FSunny.3 mph82%30.27 "Hg10 mi
3:20 PM54 °FSunny.5 mph77%30.30 "Hg10 mi
2:50 PM54 °FSunny.5 mph82%30.30 "Hg10 mi
2:20 PM54 °FSunny.5 mph77%30.30 "Hg10 mi
1:50 PM52 °FPassing clouds.5 mph88%30.33 "HgN/A
1:20 PM52 °FSunny.6 mph82%30.33 "Hg10 mi
12:50 PM50 °FPassing clouds.5 mph88%30.33 "HgN/A
12:20 PM50 °FPassing clouds.6 mph88%30.33 "HgN/A
11:50 AM50 °FSunny.2 mph88%30.33 "Hg10 mi
11:20 AM48 °FPassing clouds.3 mph94%30.33 "HgN/A
10:50 AM46 °FScattered clouds.6 mph93%30.36 "HgN/A
10:20 AM46 °FPartly sunny.3 mph93%30.36 "HgN/A
9:50 AM46 °FPartly sunny.5 mph93%30.36 "Hg3 mi
9:20 AM46 °FPartly sunny.5 mph93%30.33 "Hg3 mi
8:50 AM46 °FPartly sunny.6 mph93%30.33 "HgN/A
8:20 AM46 °FPartly sunny.2 mph93%30.33 "HgN/A
7:50 AM45 °FPartly sunny.2 mph100%30.33 "HgN/A
7:20 AM41 °FPartly sunny.2 mph100%30.30 "HgN/A
6:50 AM41 °FPassing clouds.2 mph100%30.30 "HgN/A
6:20 AM37 °FPassing clouds.1 mph100%30.30 "HgN/A
5:50 AM39 °FFog.1 mph100%30.30 "Hg3 mi
5:20 AM39 °FFog.1 mph100%30.30 "Hg3 mi
4:50 AM39 °FFog.2 mph100%30.30 "Hg2 mi
4:20 AM39 °FChilly.2 mph100%30.30 "Hg3 mi
3:50 AM41 °FLight fog.1 mph100%30.30 "Hg1 mi
3:20 AM41 °FQuite cool.2 mph100%30.30 "Hg5 mi
2:50 AM39 °FChilly.3 mph93%30.30 "Hg4 mi
2:20 AM41 °FQuite cool.2 mph93%30.30 "Hg6 mi
1:50 AM41 °FClear.2 mph93%30.30 "Hg10 mi
1:20 AM41 °FQuite cool.2 mph93%30.30 "Hg6 mi
12:50 AM43 °FClear.3 mph93%30.30 "Hg10 mi
12:20 AM41 °FQuite cool.2 mph100%30.30 "Hg5 mi
11:50 PM
Oct 30
41 °FQuite cool.2 mph93%30.33 "Hg5 mi
11:20 PM43 °FClear.1 mph93%30.30 "Hg10 mi
10:50 PM43 °FClear.3 mph93%30.30 "Hg10 mi
10:20 PM45 °FClear.5 mph93%30.30 "Hg10 mi
9:50 PM45 °FQuite cool.1 mph93%30.30 "HgN/A
9:20 PM45 °FQuite cool.2 mph93%30.30 "Hg4 mi
Weather by CustomWeather, © 2014

See weather overviewHow to use our weather pages